This is the latest recevied weather packets stored in our database for station/object WX4FUN-13. If no packets are shown the sender has not sent any weather packets the latest 10 day(s).
| Time | Temp. | Humidity | Pressure | Rain* | Wind** | Luminosity | Snow |
|---|---|---|---|---|---|---|---|
| 1778096366 | 15.56° C | 92% | 1007.6 hPa | 0 mm | - | 82 W/m² | - |
| 1778095766 | 15.56° C | 91% | 1007.8 hPa | 0.25 mm | - | 60 W/m² | - |
| 1778095166 | 15.56° C | 91% | 1007.8 hPa | 0.51 mm | - | 62 W/m² | - |
| 1778094566 | 15.56° C | 91% | 1007.8 hPa | 0.51 mm | - | 95 W/m² | - |
| 1778093965 | 15.56° C | 90% | 1007.9 hPa | 0.51 mm | - | 67 W/m² | - |
| 1778093366 | 16.11° C | 90% | 1008 hPa | 0.76 mm | - | 82 W/m² | - |
| 1778092766 | 16.11° C | 90% | 1008 hPa | 1.02 mm | - | 163 W/m² | - |
| 1778092149 | 16.11° C | 90% | 1007.9 hPa | 1.02 mm | - | 196 W/m² | - |
| 1778091549 | 16.11° C | 90% | 1008 hPa | 1.27 mm | - | 74 W/m² | - |
| 1778090950 | 16.11° C | 90% | 1008 hPa | 1.52 mm | - | 105 W/m² | - |
| 1778090349 | 16.67° C | 89% | 1007.9 hPa | 1.52 mm | - | 96 W/m² | - |
| 1778089750 | 16.67° C | 88% | 1008.2 hPa | 1.52 mm | - | 91 W/m² | - |
| 1778089151 | 16.67° C | 86% | 1008.2 hPa | 1.52 mm | - | 110 W/m² | - |
| 1778088551 | 17.22° C | 83% | 1008.7 hPa | 1.02 mm | - | 74 W/m² | - |
| 1778087950 | 17.78° C | 81% | 1008.9 hPa | 0.51 mm | - | 71 W/m² | - |
| 1778087339 | 18.33° C | 78% | 1009.1 hPa | 0.51 mm | - | 71 W/m² | - |
| 1778086741 | 18.89° C | 75% | 1009.1 hPa | 0.51 mm | - | 69 W/m² | - |
| 1778086138 | 19.44° C | 74% | 1008.9 hPa | 0.25 mm | - | 125 W/m² | - |
| 1778085537 | 20° C | 71% | 1008.9 hPa | 0 mm | - | 126 W/m² | - |
| 1778084939 | 20.56° C | 69% | 1008.7 hPa | 0 mm | - | 180 W/m² | - |
| 1778084339 | 20.56° C | 68% | 1008.7 hPa | 0 mm | - | 238 W/m² | - |
| 1778083740 | 20.56° C | 67% | 1008.9 hPa | 0 mm | - | 222 W/m² | - |
| 1778083122 | 20.56° C | 67% | 1009.2 hPa | 0 mm | - | 292 W/m² | - |
| 1778082523 | 20° C | 68% | 1009.3 hPa | 0 mm | - | 300 W/m² | - |
| 1778081923 | 20° C | 68% | 1009.3 hPa | 0 mm | - | 258 W/m² | - |
* Rain latest hour (hover to see other rain measurements)
** Current wind speed in m/s (hover to see current wind gust speed)